Home > Weather > Tehran > Past weeks

Flag for Iran Weather for the Past 2 Weeks in Tehran, Iran

Now
36 °F

Clear.


Feels Like: 32 °F
Forecast: 26 / 52 °F
Wind: 5 mph from Northwest

Location: Tehran-Mehrabad

Current Time: Feb 13, 2016 at 6:55:08 AM

Latest Report: Feb 13, 2016 at 6:00 AM


Visibility: 10 mi

Pressure: 30.12 "Hg (26.02 "Hg at 1179m altitude)

Humidity: 48%

Dew point: 18 °F

Location of TehranLocation

Historic Weather in Tehran — Graph

°F

Tehran Temperature Yesterday

Maximum temperature yesterday: 50 °F (at 3:00 PM)
Minimum temperature yesterday: 28 °F (at 3:30 AM)
Average temperature yesterday: 39 °F

High & Low Weather Summary for the Past Weeks

 TemperatureHumidityPressure
High63 °F (Feb 6, 3:00 PM)93% (Feb 8, 3:00 PM)30.36 "Hg (Feb 8, 3:00 PM)
Low23 °F (Feb 9, 4:00 AM)19% (Feb 12, 3:00 PM)29.89 "Hg (Feb 7, 2:00 PM)
Average42 °F43%30.15 "Hg
* Reported Jan 29 5:30 AM — Feb 13 5:30 AM, Tehran, Weather by CustomWeather, © 2016

Note: Actual official high and low records may vary slightly from our data, if they occured in-between our weather recording intervals... More about our weather records

Advertising

Tehran Weather History for the Previous 24 Hours

 ConditionsComfort  
Time TempWeatherWind HumidityBarometerVisibility
5:30 AM
Sat, Feb 13
34 °FClear.5 mph51%30.12 "Hg10 mi
5:00 AM34 °FClear.No wind51%30.12 "Hg10 mi
4:30 AM37 °FClear.No wind45%30.12 "Hg10 mi
4:00 AM37 °FClear.5 mph41%30.12 "Hg10 mi
3:30 AM37 °FClear.5 mph41%30.12 "Hg10 mi
3:00 AM37 °FClear.5 mph45%30.12 "Hg10 mi
2:30 AM36 °FClear.No wind48%30.12 "Hg10 mi
2:00 AM37 °FClear.No wind45%30.12 "Hg10 mi
1:30 AM39 °FClear.No wind42%30.12 "Hg10 mi
1:00 AM37 °FClear.No wind45%30.12 "Hg10 mi
12:30 AM37 °FClear.No wind45%30.12 "Hg10 mi
12:00 AM39 °FClear.7 mph42%30.12 "Hg10 mi
11:30 PM
Fri, Feb 12
39 °FClear.5 mph42%30.12 "Hg10 mi
11:00 PM41 °FClear.5 mph39%30.12 "Hg10 mi
10:30 PM43 °FClear.5 mph36%30.12 "Hg10 mi
10:00 PM43 °FClear.5 mph39%30.12 "Hg10 mi
9:30 PM41 °FClear.No wind42%30.12 "Hg10 mi
9:00 PM41 °FClear.5 mph39%30.12 "Hg10 mi
8:30 PM43 °FClear.5 mph36%30.12 "Hg10 mi
8:00 PM43 °FClear.7 mph36%30.12 "Hg10 mi
7:30 PM45 °FClear.No wind34%30.12 "Hg10 mi
7:00 PM45 °FClear.5 mph34%30.12 "Hg10 mi
6:30 PM46 °FClear.7 mph32%30.12 "Hg10 mi
6:00 PM46 °FSunny.7 mph29%30.09 "Hg10 mi
5:30 PM48 °FSunny.9 mph27%30.09 "Hg10 mi
5:00 PM48 °FSunny.9 mph25%30.07 "Hg10 mi
4:30 PM50 °FSunny.7 mph24%30.07 "Hg10 mi
4:00 PM50 °FSunny.7 mph22%30.07 "Hg10 mi
3:30 PM50 °FSunny.7 mph20%30.07 "Hg10 mi
3:00 PM50 °FSunny.5 mph19%30.07 "Hg10 mi
2:30 PM48 °FSunny.5 mph21%30.07 "Hg10 mi
2:00 PM48 °FClear.5 mph25%30.07 "Hg5 mi
1:30 PM46 °FClear.No wind29%30.09 "Hg4 mi
1:00 PM45 °FClear.7 mph29%30.09 "Hg4 mi
12:30 PM45 °FClear.5 mph31%30.09 "Hg4 mi
12:00 PM45 °FClear.No wind34%30.09 "Hg4 mi
11:30 AM43 °FClear.5 mph36%30.12 "Hg4 mi
11:00 AM41 °FClear.7 mph42%30.12 "Hg4 mi
10:30 AM39 °FClear.7 mph45%30.12 "Hg4 mi
10:00 AM37 °FClear.5 mph48%30.12 "Hg4 mi
9:30 AM36 °FHaze.7 mph52%30.12 "Hg5 mi
9:00 AM36 °FClear.5 mph56%30.09 "Hg5 mi
8:30 AM32 °FHaze.5 mph64%30.09 "Hg5 mi
8:00 AM30 °FHaze.5 mph69%30.09 "Hg5 mi
7:30 AM30 °FSunny.5 mph69%30.07 "Hg10 mi
7:00 AM28 °FClear.7 mph74%30.07 "Hg10 mi
6:30 AM28 °FClear.5 mph74%30.07 "Hg10 mi
Weather by CustomWeather, © 2016

See weather overviewHow to use our weather pages